Kenai, AK

7:03 PM AKST on February 20, 2018 (GMT -0900)
Kenai Municipal

Weather History for PAEN - August, 2013

Change the Weather History Date:

Tuesday, August 20, 2013

  Actual Average Record
Temperature  
Mean Temperature 54 °F -  
Max Temperature 57 °F 60 °F 74 °F (1977)
Min Temperature 50 °F 46 °F 34 °F (1963)
Degree Days  
Heating Degree Days 12    
Growing Degree Days 4 (Base 50)    
Moisture  
Dew Point 51 °F    
Average Humidity 92    
Maximum Humidity 100    
Minimum Humidity 80    
Precipitation  
Precipitation 0.00 in - - ()
Sea Level Pressure  
Sea Level Pressure 29.82 in    
Wind  
Wind Speed 9 mph (SSW)    
Max Wind Speed 21 mph    
Max Gust Speed 26 mph    
Visibility 10 miles    
Events      
Averages and records for this station are not official NWS values.
T = Trace of Precipitation, MM = Missing Value Source: NWS Daily Summary

Daily Weather History Graph

Daily Weather History Graph

Search for Another Location

Airport or City:

Trip Planner

Search our weather history database for the weather conditions in past years. The results will help you decide how hot, cold, wet, or windy it might be!

Date:

Astronomy

Aug. 20, 2013 Rise Set
Actual Time 6:30 AM AKDT 9:44 PM AKDT
Civil Twilight 5:39 AM AKDT 10:34 PM AKDT
Nautical Twilight 4:28 AM AKDT 11:44 PM AKDT
Astronomical Twilight 2:40 AM AKDT 1:35 AM AKDT
Moon 9:00 PM AKDT (8/20) 6:23 AM AKDT (8/20)
Length of Visible Light 16h 54m
Length of Day
15h 14m
Full, 100% of the Moon is Illuminated
Aug 20
Full
Aug 20
Full
Aug 28
Last Quarter
Sep 5
New
Sep 12
First Quarter

Hourly Weather History & Observations

Time (AKDT) Temp. Dew Point Humidity Pressure Visibility Wind Dir Wind Speed Gust Speed Precip Events Conditions
12:13 AM 51.8 °F 51.8 °F 100% 29.77 in 10.0 mi South 8.1 mph - N/A   Overcast
12:23 AM 51.8 °F 51.8 °F 100% 29.77 in 10.0 mi South 8.1 mph - N/A   Overcast
12:53 AM 52.0 °F 51.1 °F 97% 29.78 in 10.0 mi SSW 11.5 mph - N/A   Overcast
1:10 AM 51.8 °F 51.8 °F 100% 29.77 in 10.0 mi SSW 11.5 mph - N/A   Overcast
1:48 AM 51.8 °F 51.8 °F 100% 29.78 in 10.0 mi South 8.1 mph - N/A   Overcast
1:53 AM 52.0 °F 51.1 °F 97% 29.78 in 10.0 mi South 6.9 mph - N/A   Overcast
2:53 AM 52.0 °F 50.0 °F 93% 29.79 in 10.0 mi South 9.2 mph - N/A   Overcast
3:43 AM 51.8 °F 50.0 °F 94% 29.79 in 10.0 mi South 8.1 mph - N/A   Overcast
3:53 AM 51.1 °F 50.0 °F 96% 29.80 in 10.0 mi South 8.1 mph - N/A   Overcast
4:53 AM 50.0 °F 48.9 °F 96% 29.80 in 10.0 mi SE 4.6 mph - N/A   Mostly Cloudy
5:32 AM 50.0 °F 50.0 °F 100% 29.80 in 10.0 mi SSE 4.6 mph - N/A   Overcast
5:53 AM 50.0 °F 50.0 °F 100% 29.81 in 10.0 mi SSE 3.5 mph - N/A   Overcast
6:53 AM 50.0 °F 50.0 °F 100% 29.81 in 10.0 mi South 4.6 mph - N/A   Overcast
7:53 AM 50.0 °F 50.0 °F 100% 29.81 in 10.0 mi Calm Calm - N/A   Overcast
8:53 AM 52.0 °F 50.0 °F 93% 29.83 in 10.0 mi South 5.8 mph - N/A   Overcast
9:36 AM 53.6 °F 51.8 °F 94% 29.83 in 10.0 mi SSW 10.4 mph - N/A   Scattered Clouds
9:53 AM 53.1 °F 51.1 °F 93% 29.83 in 10.0 mi SSW 10.4 mph - N/A   Partly Cloudy
10:17 AM 53.6 °F 51.8 °F 94% 29.83 in 10.0 mi South 10.4 mph - N/A   Mostly Cloudy
10:36 AM 53.6 °F 51.8 °F 94% 29.83 in 10.0 mi South 10.4 mph - N/A   Scattered Clouds
10:53 AM 54.0 °F 52.0 °F 93% 29.84 in 10.0 mi SSW 9.2 mph - N/A   Scattered Clouds
11:53 AM 55.0 °F 51.1 °F 86% 29.85 in 10.0 mi SSW 9.2 mph - N/A   Mostly Cloudy
12:53 PM 54.0 °F 51.1 °F 90% 29.85 in 10.0 mi SSW 9.2 mph - N/A   Overcast
1:53 PM 55.9 °F 52.0 °F 87% 29.86 in 10.0 mi SSW 10.4 mph - N/A   Overcast
2:53 PM 57.0 °F 52.0 °F 83% 29.85 in 10.0 mi SW 12.7 mph - N/A   Mostly Cloudy
3:53 PM 55.9 °F 51.1 °F 84% 29.86 in 10.0 mi SW 16.1 mph - N/A   Scattered Clouds
4:53 PM 55.0 °F 51.1 °F 86% 29.86 in 10.0 mi SSW 16.1 mph - N/A   Partly Cloudy
5:53 PM 54.0 °F 50.0 °F 86% 29.85 in 10.0 mi SSW 18.4 mph 25.3 mph N/A   Mostly Cloudy
6:53 PM 53.1 °F 48.9 °F 86% 29.85 in 10.0 mi SSW 19.6 mph - N/A   Overcast
7:53 PM 54.0 °F 48.9 °F 83% 29.85 in 10.0 mi SSW 20.7 mph 26.5 mph N/A   Scattered Clouds
8:53 PM 53.1 °F 48.9 °F 86% 29.84 in 10.0 mi SSW 18.4 mph 25.3 mph N/A   Partly Cloudy
9:53 PM 53.1 °F 50.0 °F 89% 29.85 in 10.0 mi SSW 11.5 mph - N/A   Clear
10:53 PM 53.1 °F 50.0 °F 89% 29.85 in 10.0 mi South 11.5 mph - N/A   Clear
11:53 PM 54.0 °F 48.0 °F 80% 29.86 in 10.0 mi South 13.8 mph - N/A   Scattered Clouds